User: anonymous   Login
Location: Unspecified
(0.0000°N, 0.0000°E)
Time: 05:04:49
(UTC+01:00)
Language:

Transit 2A - Orbit

View from above orbital plane
View from above orbital plane
View from above satellite
View from above satellite

Ground track
Ground track

The orbit data is extracted from the following two-line orbital elements,

1 00045U 60007A   15063.53438437  .00000646  00000-0  18566-3 0  9999
2 00045 066.6936 070.9852 0263992 281.3862 075.7692 14.33274577845791
Epoch (UTC): 04 March 2015 12:49:30
Eccentricity: 0.0263992
inclination: 66.6936°
perigee height: 592 km
apogee height: 970 km
right ascension of ascending node: 70.9852°
argument of perigee: 281.3862°
revolutions per day: 14.33274577
mean anomaly at epoch: 75.7692°
orbit number at epoch: 84579

The dashed part of the orbit path shows where the satellite is in the earth's shadow,  

DLR